ROMMA est une association bénévole à but non lucratif. Votre soutien est indispensable : ADHERER à ROMMA ou FAIRE un DON

Chambon - (38, Isère)

Oisans (2460 m)   Longitude: 06° 10' 42" E   Latitude: 45° 01' 32" N Station partenaire n°803
 

Détail journalier du     <<     >>

Température Humidité Vent Dir Rafale Dir. rafale Neige 1 Neige 2
Heure (°C) (%) (km/h) (km/h) (cm) (cm)
01:00 -4.4683OSO13OSO057
02:00 -4.9695SO11SO057
03:00 -4.6687SO13SO056
04:00 -4.6706NE16NE056
05:00 -5.3756NE14NE057
06:00 -4.2704N10N056
07:00 -4.6737N20OSO056
08:00 -4.5756S13OSO056
09:00 -3.8705ENE11OSO056
10:00 -3.5733ENE17ENE056
11:00 -2.3703SSE12OSO055
12:00 -1.5724E17SO055
13:00 -1.6712SO10SO054
14:00 -2.5762SSO7OSO054
15:00 -2.8864SSO12OSO056
16:00 -3.99612SO22SO056
17:00 -3.89822SO33OSO056
18:00 -4.29821OSO32OSO055
19:00 -3.69216SO27SO055
20:00 -4.49412SO26OSO055
21:00 -5.29912SO25SO055
22:00 -5.69212SSO18SSO055
23:00 -6.09913SSO18SSO055
minuit -6.69213SO18SO055

Graphique du 11-11-2019

 

Serveur OMMA